Overview Statistics Trail Chart Weather Telemetry Raw packets
 

This is the latest recevied weather packets stored in our database for station/object KV9E. If no packets are shown the sender has not sent any weather packets the latest 10 day(s).

<< 12 13 14 15 16 17 18 >>
Time Temp. Humidity Pressure Rain* Wind** Luminosity Snow
1788532082 27.78° C 76% 1018.2 hPa 0 mm - 48 W/m² -
1788531777 27.78° C 76% 1018.2 hPa 0 mm - 62 W/m² -
1788531472 27.78° C 75% 1017.9 hPa 0 mm - 53 W/m² -
1788531168 27.22° C 77% 1018.1 hPa 0 mm - 146 W/m² -
1788530863 27.22° C 80% 1018.2 hPa 0 mm - 94 W/m² -
1788530559 27.22° C 79% 1017.9 hPa 0 mm - 49 W/m² -
1788530257 27.22° C 78% 1017.9 hPa 0 mm - 43 W/m² -
1788529953 27.22° C 79% 1018 hPa 0 mm - 64 W/m² -
1788529649 27.22° C 78% 1018.1 hPa 0 mm - 80 W/m² -
1788529348 26.67° C 80% 1018.1 hPa 0 mm - 106 W/m² -
1788529043 26.67° C 79% 1017.9 hPa 0 mm - 42 W/m² -
1788528740 27.22° C 80% 1018.1 hPa 0 mm - 42 W/m² -
1788528439 26.67° C 80% 1018.1 hPa 0 mm - 40 W/m² -
1788528134 26.11° C 79% 1017.9 hPa 0 mm - 38 W/m² -
1788527833 25.56° C 81% 1018 hPa 0 mm - 37 W/m² -
1788527528 25.56° C 81% 1018.1 hPa 0 mm - 38 W/m² -
1788527223 25.56° C 81% 1017.9 hPa 0 mm - 36 W/m² -
1788526922 25° C 82% 1018.1 hPa 0 mm - 35 W/m² -
1788526619 24.44° C 84% 1017.9 hPa 0 mm - 33 W/m² -
1788526314 25° C 84% 1017.8 hPa 0 mm - 32 W/m² -
1788526009 25° C 83% 1017.9 hPa 0 mm - 31 W/m² -
1788525705 25° C 83% 1017.7 hPa 0 mm - 30 W/m² -
1788525404 24.44° C 84% 1017.7 hPa 0 mm - 30 W/m² -
1788525100 25° C 82% 1017.9 hPa 0 mm - 28 W/m² -
1788524795 25° C 82% 1017.8 hPa 0 mm - 26 W/m² -

* Rain latest hour (hover to see other rain measurements)
** Current wind speed in m/s (hover to see current wind gust speed)